SCP
0 0 0 0 0 0 0 0 0 0 0 0 0 0 0 0 0 0 0 0 0 0 0 0 0 0 0 0 0 0 0 0 0 0 0 0 0 0 0 0 0 0 0 0
0 0 0 0 0 0 0 0 0 0 0 0 0 0 0 0 0 0 0 0 0 0 0 0 0 0 0 0 0 0 0 0 0 0 0 0 0 0 0 0 0 0 0 0
0 0 0 0 0 0 0 0 0 0 0 0 0 0 0 0 0 0 0 0 0 0 0 0 0 0 0 0 0 0 0 0 0 0 0 0 0 0 0 0 0 0 0 0
0 0 0 0 0 0 0 0 0 0 0 0 0 0 0 0 0 0 0 0 0 0 0 0 0 0 0 0 0 0 0 0 0 0 0 0 0 0 0 0 0 0 0 0
0 0 0 0 0 0 0 0 0 0 0 0 0 0 0 0 0 0 0 0 0 0 0 0 0 0 0 0 0 0 0 0 0 0 0 0 0 0 0 0 0 0 0 0
0 0 0 0 0 0 0 0 0 0 0 0 0 0 0 0 0 0 0 0 0 0 0 0 0 0 0 0 0 0 0 0 0 0 0 0 0 0 0 0 0 0 0 0
0 0 0 0 0 0 0 0 0 0 0 0 0 0 0 0 0 0 0 0 0 0 0 0 0 0 0 0 0 0 0 0 0 0 0 0 0 0 0 0 0 0 0 0
0 0 0 0 0 0 0 0 0 0 0 0 0 0 0 0 0 0 0 0 0 0 0 0 0 0 0 0 0 0 0 0 0 0 0 0 0 0 0 0 0 0 0 0
0 -0 -0 0 0 0 0 0 0 0 0 0 0 0 0 0 0 0 0 0 0 0 0 0 0 0 0 0 0 0 0 0 0 0 0 0 0 0 0 0 0 0 0 0
-0 -0 -0 -0 0 0 0 0 0 0 0 0 0 0 0 0 0 0 0 0 0 0 0 0 0 0 0 0 0 0 0 0 0 0 0 0 0 0 0 0 0 0 0 0
-0 -0 -0 0 0 0 0 0 0 0 0 0 0 0 0 0 0 0 0 0 0 0 0 0 0 0 0 0 0 0 0 0 0 0 0 0 0 0 0 0 0 0 0 0
-0 0 0 0 0 0 0 0 -0 -0 0 0 0 0 0 0 0 0 0 0 0 0 0 0 0 0 0 0 0 0 0 0 0 0 0 0 0 0 0 0 0 0 0 0
0 0 0 0 0 0 0 0 -0 -0 0 0 0 0 0 0 0 0 0 0 0 0 0 0 0 0 0 0 0 0 0 0 0 0 0 0 0 0 0 0 0 0 0 0
0 0 0 0 0 0 0 0 -0 -0 -0 0 0 0 0 0 0 0 0 0 0 0 0 0 0 0 0 0 0 0 0 0 0 0 0 0 0 0 0 0 0 0 0 0
0 -0 -0 0 0 0 0 0 -0 -0 -0 0 0 0 0 0 0 0 0 0 0 0 0 0 0 0 0 0 0 0 0 0 0 0 0 0 0 0 0 0 0 0 0 0
0 0 -0 0 0 0 0 0 -0 -0 -0 0 0 0 0 0 0 0 0 0 0 0 0 0 0 0 0 0 0 0 0 0 0 0 0 0 0 0 0 0 0 0 0 -0
0 0 0 0 0 0 0 0 0 -0 -0 0 0 0 0 0 0 0 0 0 0 0 0 0 0 0 0 0 0 0 0 0 0 0 0 0 0 0 0 0 0 0 -0 -0
0 0 0 0 0 0 0 0 0 0 0 0 0 0 0 0 0 0 0 0 0 0 0 0 0 0 0 0 0 0 0 0 0 0 0 0 0 0 0 0 0 -0 -0 -0
0 0 0 0 0 0 0 0 0 0 0 0 0 0 0 0 0 0 0 0 0 0 0 0 0 0 0 0 0 0 0 0 0 0 0 0 0 0 0 0 -0 -0 -0 -0
0 0 0 0 0 0 0 0 0 0 0 0 0 0 0 0 0 0 0 0 0 0 0 0 0 0 0 0 0 0 0 0 0 0 0 0 0 0 0 0 -0 -0 -0 -0
0 0 0 0 0 0 0 0 0 0 0 0 0 0 0 0 0 0 0 0 0 0 0 0 0 0 0 0 0 0 0 0 0 0 0 0 0 0 -0 -0 -0 -0 -0 0
0 0 0 0 0 0 0 0 0 0 0 0 0 0 0 0 0 0 0 0 0 0 0 0 0 0 0 0 0 0 0 0 0 0 0 0 0 0 -0 -0 -0 -0 0 0
0 0 0 0 0 0 0 0 0 0 0 0 0 0 0 0 0 0 0 0 0 0 0 0 0 0 0 0 0 0 0 0 0 0 0 0 0 -0 -0 -0 -0 0 0 0
0 0 0 0 0 0 0 0 0 0 0 0 0 0 0 0 0 0 0 0 0 0 0 0 0 0 0 0 0 0 0 0 0 0 0 0 0 -0 -0 0 0 0 0 0
0 0 0 0 0 0 0 0 0 0 0 0 0 0 0 0 0 0 0 0 0 0 0 0 0 0 0 0 0 0 0 0 0 0 -0 -0 -0 -0 0 0 0 0 0 0
0 0 0 0 0 0 0 0 0 0 0 0 0 0 0 0 0 0 0 0 0 0 0 0 0 0 0 0 0 0 0 0 0 -0 -0 -0 -0 -0 0 0 0 0 0 0
Wind_Speed
2 3 2 5 5 3 3 3 5 6 3 2 7 10 10 6 4 5 6 5 6 7 6 4 4 3 2 2 2 2 2 1 1 0 0 1 1 2 1 2 2 2 2 1
3 3 5 3 3 3 4 4 5 5 3 3 6 10 9 6 6 6 7 7 6 5 4 4 3 2 3 3 3 3 3 2 2 2 1 1 1 1 2 1 1 2 2 1
4 3 1 2 2 3 5 5 5 4 4 2 4 8 5 4 3 4 5 5 5 5 5 4 3 3 3 3 3 3 3 2 3 2 1 1 1 1 1 1 1 2 2 2
3 3 2 3 3 4 6 4 4 3 2 4 0 6 7 4 5 5 5 4 4 4 4 4 3 3 3 4 3 3 2 2 2 2 2 2 1 1 2 2 2 2 2 2
3 1 1 3 4 4 4 2 2 2 2 3 1 3 9 2 5 6 5 5 4 4 4 4 4 4 3 3 2 2 2 2 1 2 2 2 2 2 1 1 2 2 2 2
3 2 1 2 2 2 1 1 2 2 1 4 4 4 9 4 6 5 4 4 4 3 3 3 2 2 2 2 1 1 1 2 2 2 2 3 3 2 2 2 2 2 2 2
4 3 1 1 1 1 2 3 3 4 2 6 2 4 11 6 5 5 5 4 3 3 2 2 2 2 2 2 2 1 1 2 2 2 2 3 3 3 4 3 3 3 2 2
1 5 3 1 3 2 2 4 4 4 5 5 2 7 9 4 3 3 3 2 2 2 2 2 2 2 2 2 2 2 2 2 2 2 3 3 3 2 3 3 3 3 3 3
2 5 1 1 1 4 3 3 2 3 1 4 6 7 9 2 2 2 2 2 3 3 3 3 3 2 2 2 2 2 2 2 3 3 3 3 3 3 3 4 3 3 3 3
3 4 3 1 1 0 2 5 3 3 2 5 6 5 5 3 3 3 3 3 4 4 3 3 3 3 3 2 2 2 2 3 3 3 3 3 3 3 4 3 4 4 4 3
2 2 4 1 4 5 3 3 3 2 3 3 4 8 6 5 3 3 4 3 3 4 4 3 3 3 3 3 2 2 2 3 3 3 3 3 3 3 3 3 4 4 4 3
3 2 3 5 2 2 4 5 6 4 4 3 3 10 3 3 2 2 3 4 3 3 3 3 3 3 3 3 3 3 3 3 3 3 2 3 3 2 3 3 4 3 3 3
4 2 2 4 1 0 2 3 4 3 2 4 5 10 2 1 3 3 3 4 4 3 3 3 2 2 3 3 3 3 3 3 3 2 2 3 2 3 3 4 4 3 3 3
3 3 5 7 5 3 4 4 5 5 4 5 9 11 10 8 7 6 5 4 3 3 3 3 3 3 3 3 4 4 4 3 3 2 2 2 3 3 3 3 3 3 3 3
2 3 4 7 7 5 7 8 8 10 9 9 10 10 13 8 7 6 5 4 4 4 3 3 3 3 3 3 4 4 4 3 2 2 2 3 3 3 2 2 2 3 3 3
1 2 2 5 4 5 9 10 11 11 9 11 11 15 11 6 3 4 5 4 5 5 4 4 4 4 4 4 4 4 4 3 2 2 3 3 3 2 2 2 2 2 2 2
2 2 1 4 3 4 9 10 11 8 8 8 11 12 5 4 5 5 6 5 5 5 5 4 4 4 4 4 4 4 4 3 2 2 3 3 2 2 2 2 2 2 2 2
4 3 1 2 3 6 8 2 6 7 8 9 8 7 6 6 6 6 5 5 6 5 5 5 4 5 4 4 4 4 3 3 2 2 3 2 2 2 2 2 2 2 2 1
5 5 2 1 3 10 8 3 5 5 7 6 9 9 6 3 4 5 4 4 5 5 4 4 4 4 4 4 4 3 3 3 2 3 3 3 3 2 2 2 2 2 1 2
2 3 3 3 3 8 7 2 2 2 6 4 6 7 4 0 3 6 4 3 4 3 3 3 3 3 3 4 3 2 3 3 3 3 3 3 3 2 2 3 2 1 1 2
3 4 5 5 6 10 7 2 3 3 7 3 4 5 4 5 6 5 4 3 3 3 3 3 2 2 3 3 2 3 3 4 4 3 3 2 2 2 2 1 1 1 1 1
8 6 7 5 6 11 4 5 7 8 3 2 3 4 5 6 5 4 4 4 3 3 3 3 2 3 3 2 1 3 4 5 4 3 2 2 2 1 1 0 0 0 1 0
8 9 7 10 10 6 5 7 6 3 4 4 4 4 4 4 4 4 4 4 4 3 3 3 2 3 3 2 2 3 5 4 3 2 2 1 1 1 0 1 1 1 1 1
5 3 4 6 10 8 7 7 6 5 6 5 4 4 3 4 4 4 4 4 4 4 4 3 2 3 4 3 3 4 4 3 2 2 2 1 1 1 0 0 1 1 1 1
6 5 5 7 8 6 7 7 7 5 4 5 4 3 4 4 4 4 4 4 4 4 3 3 3 4 4 4 3 3 3 2 2 2 2 2 1 0 0 1 1 1 2 1
7 8 8 9 7 6 7 5 4 4 5 5 4 4 3 4 5 4 4 4 4 4 3 3 3 4 4 4 4 3 2 1 1 1 1 1 0 0 0 0 1 2 1 2
Wind_Direction
31 73 210 220 209 216 200 219 260 262 264 259 251 267 277 272 257 259 266 265 265 264 267 263 256 243 238 250 246 243 253 225 178 154 179 275 282 280 269 259 258 254 255 247
45 257 244 226 209 223 230 252 265 285 280 258 273 275 272 251 243 240 246 254 260 274 290 287 274 254 238 238 244 242 240 225 206 207 206 226 243 263 256 263 264 259 255 245
198 246 251 216 221 231 239 230 243 269 315 303 307 291 273 266 258 258 251 252 258 258 266 280 270 259 263 257 248 248 241 229 217 205 163 50 31 348 333 322 298 292 284 268
248 271 257 242 235 208 253 234 231 254 292 290 339 288 280 270 285 269 267 268 265 269 266 274 267 264 256 256 254 248 237 225 219 184 181 183 219 248 252 264 273 293 284 277
264 270 238 240 247 214 239 268 221 226 214 283 246 251 283 295 279 273 263 261 265 265 259 272 268 259 262 258 252 249 246 237 223 199 203 205 240 254 274 279 285 290 293 283
257 267 221 226 275 213 211 35 63 59 84 270 228 205 277 242 238 270 276 277 278 275 274 277 283 290 295 292 279 258 241 248 229 217 219 217 230 249 265 277 269 277 285 284
315 283 258 175 21 7 86 81 18 348 332 254 213 214 252 247 237 242 265 281 285 281 277 287 301 304 305 310 301 270 233 251 241 228 232 233 234 232 238 248 248 257 266 271
310 288 241 200 183 192 202 154 164 222 246 284 274 239 255 257 261 269 272 282 303 307 293 292 290 288 289 290 289 276 250 258 249 240 247 248 239 235 246 247 246 244 250 255
200 267 276 207 198 154 159 193 169 145 244 276 268 278 296 270 333 334 334 350 332 317 312 307 308 309 300 286 273 259 253 265 261 254 251 254 249 245 252 256 249 248 254 257
175 263 276 272 129 103 163 154 119 147 213 271 284 265 249 269 290 322 340 325 314 314 311 311 311 311 299 284 279 276 259 253 256 255 250 261 256 251 249 249 248 252 254 250
171 215 293 273 201 193 158 160 157 165 181 192 276 272 228 211 227 267 287 288 290 296 297 302 312 312 306 312 307 295 285 279 273 264 259 262 259 254 247 245 248 248 251 248
174 154 263 255 248 193 189 185 164 177 228 203 229 270 263 197 228 265 299 308 303 294 293 304 315 322 329 323 320 312 301 284 272 264 261 261 261 259 256 255 257 252 249 246
156 144 325 333 330 202 218 205 188 164 155 188 212 262 288 331 327 316 310 313 307 305 308 319 322 322 322 318 318 313 303 292 283 277 271 271 271 266 262 262 261 255 248 246
136 178 198 220 238 205 236 227 205 187 204 226 232 257 286 299 301 304 302 295 296 294 296 309 313 311 314 315 314 312 306 300 294 285 269 271 275 268 266 265 263 257 246 238
127 232 242 259 269 252 242 238 216 214 214 223 246 253 270 276 275 280 286 295 302 299 302 303 304 306 312 316 311 309 304 301 291 277 271 270 273 277 280 282 280 269 250 238
134 233 276 276 261 259 262 247 230 233 231 239 260 270 265 268 272 282 280 281 284 286 288 293 300 306 305 304 306 306 300 294 282 267 272 280 281 280 282 281 284 284 266 249
179 166 273 274 308 317 270 233 209 217 216 207 234 250 268 280 272 261 258 259 260 273 279 284 288 287 288 291 293 291 288 286 278 268 274 274 271 274 282 288 295 290 276 256
166 155 203 287 354 257 250 215 195 221 242 222 238 255 254 259 275 267 247 242 259 270 275 278 283 290 292 295 301 299 297 294 280 270 270 270 272 279 287 284 285 286 287 271
184 166 182 205 260 277 288 240 181 203 265 227 232 255 265 288 321 289 246 242 250 259 267 267 270 278 290 301 305 309 312 305 291 277 273 270 265 269 269 268 268 276 287 289
149 164 176 187 227 252 258 230 168 123 280 245 214 240 248 214 294 278 278 269 268 280 280 280 289 297 298 302 308 305 304 310 295 279 274 268 258 257 252 255 258 279 275 280
164 182 204 212 237 262 258 209 132 176 256 267 217 225 216 214 232 265 287 290 284 289 287 288 294 296 288 298 312 300 304 296 290 285 283 279 269 259 247 251 263 282 288 298
182 182 197 185 217 253 218 149 191 226 262 252 238 233 229 242 266 282 286 290 296 302 301 298 301 302 304 301 294 295 294 292 297 296 286 283 281 268 253 191 255 235 221 224
204 195 190 198 220 244 198 210 232 232 254 256 247 254 233 244 262 275 279 281 286 288 292 298 289 301 309 299 274 279 291 302 311 319 308 294 292 282 233 185 204 205 197 205
240 197 203 247 257 254 251 255 263 251 246 254 253 251 229 239 255 267 273 279 283 288 291 296 292 291 297 300 285 275 288 300 309 313 312 301 281 282 260 235 212 203 205 212
218 183 210 249 268 288 268 243 245 250 250 257 260 245 234 234 256 257 265 269 272 282 287 282 274 278 284 295 291 288 290 295 303 302 309 315 320 265 207 250 236 229 220 217
196 188 195 231 230 224 258 259 243 243 252 248 250 266 257 230 241 251 261 265 267 271 279 284 285 282 289 296 291 287 281 268 278 296 304 305 320 294 218 281 337 315 287 289